Location: Mercogliano
(40.9167°N, 14.7333°E)
Time: 04:02:55
(UTC+00:00)

Cosmos 1048 Rocket - Pass Details

Date: 18 September 2020
Orbit: 742 x 792 km, 74.0° (Epoch: 25 October)

Event Time Altitude Azimuth Distance (km) Brightness Sun altitude
Rises 19:26:13 0° 338° (NNW) 3,261 8.0 -26.5°
Reaches altitude 10° 19:28:36 10° 336° (NNW) 2,336 7.1 -26.9°
Maximum altitude 19:33:53 70° 254° (WSW) 837 4.2 -27.8°
Enters shadow 19:34:11 68° 230° (SW) 846 4.1 -27.8°
